Other Surface Observations
Issued by NWS Charleston, SC

Home | Current Version | Previous Version | Text Only | Print | Product List | Glossary On
Versions: 1 2 3 4 5 6 7 8 9 10 11 12 13 14 15 16 17 18 19 20 21 22 23 24 25 26 27 28 29 30 31 32 33 34 35 36 37 38 39 40 41 42 43 44 45 46 47 48 49 50
000
SXUS52 KCHS 220712
OSOCHS

MARINE OBSERVATIONS
NATIONAL WEATHER SERVICE CHARLESTON SC
300 AM EDT SUN OCT 22 2017

...DOWNTOWN CHARLESTON AND HARBOR...

CITY           SKY/WX    TMP DP  RH WIND       PRES   REMARKS
WATERFRONT PRK   N/A     72  68  87 NE9       30.09F

...LAKE MOULTRIE...

CITY           SKY/WX    TMP DP  RH WIND       PRES   REMARKS
PINOPOLIS        N/A     68  66  94 E5        30.18F

...LAKE AND SUPPLEMENTAL COASTAL OBSERVATIONS...

STATION/POSITION TIME  TEMP    WIND        PRES    WAVE   SWELL
                       AIR SEA DIR/SP/G            HT/PER HT/PER/DIR
                 (UTC) (F)     (DEG/KT/KT) (MB)    (FT/S) (FT/S/D)
FORT PULASKI     0648      74   80/  7/  9 1023.5F
SAPELO ISLAND    NOT AVBL
WINYAH BAY       0545   72      80/  8     1025.0
LAKE MURRAY      0620   66     100/  4/  5 1025.1
ACE BASIN NERRS  0545   70      30/  2     1025.0


...C-MAN AND BUOY OBSERVATIONS...

STATION/POSITION TIME  TEMP    WIND        PRES    WAVE   SWELL
                       AIR SEA DIR/SP/G            HT/PER HT/PER/DIR
                 (UTC) (F)     (DEG/KT/KT) (MB)    (FT/S) (FT/S/D)
BUOY 41004       0650   78 79  100/ 14/ 16 1023.8F   4/ 8   2/110/ 8
BUOY 41008       0650   78 77  100/ 14/ 17 1022.1F   4/ 8   2/120/ 8
FOLLY BEACH CMAN 0700   74      80/ 10/ 11 1024.6F
CAPERS NS BUOY   0608   72 73   90/ 10/ 14 1024.3F
FRIPP NS BUOY    0608   76     100/ 12/ 16   N/A
5E ST. MARYS GA  0700      76                N/A     5/ 6


STATION/POSITION TIME  TEMP    WIND        PRES    WAVE   SWELL
                       AIR SEA DIR/SP/G            HT/PER HT/PER/DIR
                 (UTC) (F)     (DEG/KT/KT) (MB)    (FT/S) (FT/S/D)
FRYING PAN BUOY  0650   76 76  120/ 10/ 14 1025.0F   3/ 9   3/130/ 9
BUOY 41025       0650   75 81   80/  8/ 10 1026.0F   3/ 8   3/110/ 8
CAPE LOOKOUT NC  0700   69      10/  6/  7 1025.9F
BUOY 41002       0650   76 80   90/ 12/ 16 1024.7F   5/ 8   3/ 80/ 8
BUOY 41010       NOT AVBL
ST AUGUSTINE FL  0700   79 77  100/ 17/ 19 1020.8F

$$




USA.gov is the U.S. government's official web portal to all federal, state and local government web resources and services.